[[{"header":{"parameterUnit":"m.s-1","parameterCategory":1,"la1":30.2991,"la2":30.254,"lo1":-89.0895,"lo2":-89.0444,"dy":0.0017,"dx":0.0017,"nx":28,"ny":28,"refTime":"2024-02-14T03:00:00:Z","depth":0,"parameterNumber":2,"parameterNumberName":"U-component_of_WINDS"},"data":[0,0,0,0,0,0,0,0,0,0,0,0,0,0,0,0,0,0,0,0,0,0,0,0,0,0,0,0,0,0,0,0,0,0,0,0,0,0,0,0,0,0,0,0,0,0,0,0,0,0,0,0,0,0,0,0,0,0,-1.2745,-1.2745,0,-1.2729,-1.2729,-1.2729,-1.2673,-1.2672,-1.2671,-1.267,-1.2654,-1.2655,-1.2656,0,0,0,0,0,0,0,0,0,0,0,0,0,-1.2729,-1.273,-1.2745,-1.2745,-1.2745,-1.2729,-1.2729,-1.2729,-1.2674,-1.2672,-1.2671,-1.2669,-1.2654,-1.2655,-1.2656,0,0,0,0,0,0,0,0,0,0,0,0,0,-1.2727,-1.273,-1.2745,-1.2715,-1.2713,-1.2729,-1.2729,-1.2729,-1.2674,-1.2672,-1.267,-1.2669,-1.2654,-1.2655,-1.2656,-1.27,0,0,-1.2659,-1.266,0,0,0,0,0,0,0,0,-1.2727,-1.2728,-1.272,-1.2718,-1.2714,-1.2701,-1.2718,-1.2719,-1.2674,-1.2689,-1.267,-1.2668,-1.2671,-1.2671,-1.2672,-1.27,-1.2699,-1.2659,-1.266,-1.266,-1.2661,0,0,0,0,0,0,0,-1.2728,-1.2728,-1.2739,-1.272,-1.2717,-1.2703,-1.2701,-1.2718,-1.2691,-1.2687,-1.2683,-1.2682,-1.267,-1.2671,-1.2671,-1.2699,-1.2659,-1.266,-1.2661,-1.2661,-1.2762,-1.2764,0,0,0,0,0,0,-1.2732,-1.2729,-1.2739,-1.2738,-1.2716,-1.2705,-1.2702,-1.2708,-1.269,-1.2686,-1.2684,-1.268,-1.267,-1.267,-1.2671,-1.2721,-1.266,-1.2661,-1.2662,-1.276,-1.2763,-1.2765,0,0,0,0,0,0,-1.2732,-1.2733,-1.274,-1.2733,-1.2732,-1.2707,-1.2714,-1.2708,-1.271,-1.2688,-1.2683,-1.269,-1.2669,-1.2669,-1.2693,-1.272,-1.2662,-1.2663,-1.2758,-1.2761,-1.2764,-1.2823,0,0,0,0,0,0,-1.2732,-1.2734,-1.275,-1.2733,-1.2733,-1.2763,-1.2715,-1.2709,-1.2712,-1.2706,-1.2692,-1.2688,-1.2667,-1.2692,-1.2695,-1.272,-1.2664,-1.2756,-1.276,-1.2763,-1.2819,-1.2828,-1.2836,0,0,0,0,0,-1.2731,-1.2767,-1.2751,-1.2752,-1.2753,-1.2764,-1.2764,-1.2739,-1.2714,-1.273,-1.2717,-1.2689,-1.2717,-1.2695,-1.2697,-1.2724,-1.2754,-1.2758,-1.2763,-1.2815,-1.2826,-1.2836,0,0,0,0,0,0,-1.2787,-1.2764,-1.2746,-1.2778,-1.2774,-1.2755,-1.2774,-1.2752,-1.2754,-1.2749,-1.2718,-1.2715,-1.2744,-1.2737,-1.2712,-1.2767,-1.2731,-1.2736,-1.277,-1.278,-1.2789,-1.2789,-1.2665,0,0,0,0,0,-1.2803,-1.2815,-1.2794,-1.2824,-1.2823,-1.28,-1.2804,-1.2785,-1.2779,-1.2777,-1.2765,-1.2761,-1.2769,-1.2774,-1.278,-1.2818,-1.2815,-1.2838,-1.2847,-1.2854,-1.2858,-1.2878,-1.2888,-1.278,-1.278,-1.278,0,0,-1.2836,-1.2825,-1.2834,-1.2835,-1.2829,-1.2842,-1.2798,-1.2813,-1.2822,-1.2779,-1.2801,-1.2793,-1.2786,-1.2818,-1.2831,-1.2812,-1.2887,-1.286,-1.2865,-1.2866,-1.2883,-1.2894,-1.2903,-1.2783,-1.2782,-1.2782,0,0,-1.2903,-1.2896,-1.292,-1.2916,-1.2908,-1.2892,-1.2899,-1.2884,-1.2877,-1.2898,-1.2866,-1.2878,-1.2892,-1.2888,-1.2889,-1.2956,-1.2931,-1.2959,-1.3003,-1.3023,-1.3031,-1.3038,-1.3062,-1.3071,-1.2964,-1.2964,-1.2964,0,-1.2945,-1.2962,-1.2935,-1.2953,-1.2954,-1.2917,-1.2941,-1.2938,-1.2933,-1.2935,-1.2915,-1.2933,-1.2926,-1.2956,-1.2972,-1.2974,-1.298,-1.296,-1.3032,-1.3039,-1.3046,-1.3068,-1.3077,-1.2968,-1.2967,-1.2967,-1.2967,0,-1.3014,-1.3027,-1.3047,-1.3043,-1.3047,-1.3068,-1.3045,-1.3053,-1.3035,-1.3021,-1.3045,-1.3035,-1.3039,-1.3045,-1.3027,-1.3073,-1.3062,-1.3038,-1.3001,-1.306,-1.308,-1.3088,-1.2973,-1.2971,-1.297,-1.297,0,0,-1.3112,-1.3095,-1.3103,-1.3101,-1.3091,-1.31,-1.3121,-1.3124,-1.3131,-1.313,-1.3145,-1.3159,-1.3137,-1.3137,-1.3119,-1.3137,-1.319,-1.311,-1.3109,-1.3124,-1.324,-1.3257,-1.3268,-1.3174,-1.3176,-1.3177,-1.324,0,-1.3175,-1.3207,-1.3184,-1.322,-1.3232,-1.3198,-1.3215,-1.3211,-1.32,-1.3209,-1.3197,-1.3207,-1.3177,-1.3177,-1.3193,-1.318,-1.3213,-1.3176,-1.3188,-1.3189,-1.3189,-1.3278,-1.3296,-1.3356,-1.3248,-1.3249,-1.325,0,-1.3251,-1.3253,-1.329,-1.3279,-1.3283,-1.3299,-1.3301,-1.331,-1.3305,-1.3296,-1.3297,-1.3275,-1.3294,-1.326,-1.3286,-1.3261,-1.3265,-1.326,-1.3262,-1.3261,-1.3222,-1.3278,-1.3375,-1.3383,-1.3263,-1.3262,-1.3261,0,-1.3318,-1.333,-1.3354,-1.3354,-1.3341,-1.3353,-1.3349,-1.3342,-1.3346,-1.3349,-1.3351,-1.3356,-1.3358,-1.3363,-1.3342,-1.3319,-1.3371,-1.3335,-1.3364,-1.3364,-1.3374,-1.3374,-1.3472,-1.338,-1.338,-1.338,-1.338,0,-1.3389,-1.3413,-1.3384,-1.3399,-1.3425,-1.34,-1.3427,-1.3419,-1.3414,-1.3426,-1.3398,-1.3411,-1.3384,-1.3394,-1.3379,-1.3402,-1.3404,-1.3397,-1.3392,-1.3399,-1.3399,-1.3399,-1.3394,-1.3382,-1.3382,-1.3381,-1.3381,0,-1.3467,-1.3449,-1.3473,-1.3459,-1.3457,-1.3477,-1.3465,-1.3479,-1.3467,-1.3483,-1.3486,-1.3467,-1.3477,-1.3458,-1.3466,-1.3456,-1.3489,-1.3479,-1.3491,-1.3487,-1.3516,-1.3513,-1.3617,-1.3629,-1.3531,-1.3532,-1.3533,0,-1.3512,-1.353,-1.3519,-1.3526,-1.3523,-1.3534,-1.3538,-1.3515,-1.352,-1.3517,-1.3531,-1.354,-1.3545,-1.3563,-1.355,-1.3557,-1.3545,-1.3581,-1.3546,-1.3552,-1.3545,-1.3543,-1.3545,-1.3588,-1.3589,-1.359,-1.3591,0,-1.3594,-1.3585,-1.3592,-1.3597,-1.3603,-1.3605,-1.3606,-1.3613,-1.3589,-1.3597,-1.3607,-1.3612,-1.362,-1.3629,-1.3633,-1.3628,-1.3606,-1.3603,-1.3609,-1.3615,-1.3621,-1.3617,-1.3509,-1.36,-1.3599,-1.3598,-1.3598,-1.3597,-1.3657,-1.3671,-1.3666,-1.3675,-1.3673,-1.3675,-1.3686,-1.3677,-1.3685,-1.369,-1.3677,-1.3691,-1.3687,-1.3689,-1.3688,-1.3698,-1.3682,-1.3692,-1.3695,-1.3697,-1.3701,-1.3621,-1.3699,-1.3699,-1.3699,-1.3698,-1.3698,0,-1.3736,-1.3732,-1.3741,-1.3743,-1.375,-1.373,-1.373,-1.3737,-1.375,-1.3748,-1.3754,-1.3767,-1.3776,-1.3764,-1.3771,-1.3782,-1.3772,-1.3784,-1.3782,-1.3782,-1.3716,-1.3709,-1.3793,-1.3792,-1.3792,-1.3792,-1.3792,-1.3792,-1.3779,-1.3802,-1.3792,-1.3815,-1.381,-1.3823,-1.3825,-1.3827,-1.3825,-1.3841,-1.3848,-1.3841,-1.3835,-1.3842,-1.3849,-1.3846,-1.3849,-1.3865,-1.3858,-1.3796,-1.3786,-1.3778,-1.3771,-1.3866,-1.3866,-1.3923,-1.3923,-1.3924]},{"header":{"parameterUnit":"m.s-1","parameterCategory":1,"la1":30.2991,"la2":30.254,"lo1":-89.0895,"lo2":-89.0444,"dy":0.0017,"dx":0.0017,"nx":28,"ny":28,"refTime":"2024-02-14T03:00:00:Z","depth":0,"parameterNumber":3,"parameterNumberName":"V-component_of_WINDS"},"data":[0,0,0,0,0,0,0,0,0,0,0,0,0,0,0,0,0,0,0,0,0,0,0,0,0,0,0,0,0,0,0,0,0,0,0,0,0,0,0,0,0,0,0,0,0,0,0,0,0,0,0,0,0,0,0,0,0,0,1.6514,1.6514,0,1.6499,1.6499,1.6498,1.6537,1.6538,1.6539,1.654,1.6518,1.6516,1.6515,0,0,0,0,0,0,0,0,0,0,0,0,0,1.6572,1.657,1.6514,1.6514,1.6514,1.6499,1.6499,1.6498,1.6536,1.6538,1.6539,1.6541,1.6519,1.6516,1.6514,0,0,0,0,0,0,0,0,0,0,0,0,0,1.655,1.657,1.6514,1.6531,1.6533,1.6499,1.6499,1.6498,1.6536,1.6538,1.654,1.6542,1.6519,1.6517,1.6514,1.6461,0,0,1.6506,1.6505,0,0,0,0,0,0,0,0,1.6551,1.6548,1.6529,1.653,1.6531,1.6522,1.6511,1.6486,1.6536,1.6535,1.654,1.6542,1.6517,1.6515,1.6508,1.646,1.6459,1.6506,1.6504,1.6503,1.6502,0,0,0,0,0,0,0,1.6553,1.6549,1.6508,1.6529,1.653,1.6538,1.6537,1.6506,1.6515,1.6535,1.6538,1.6536,1.6518,1.651,1.6508,1.6459,1.6506,1.6504,1.6502,1.6501,1.6367,1.6365,0,0,0,0,0,0,1.6553,1.655,1.6508,1.6508,1.6546,1.6535,1.6534,1.6523,1.6516,1.6517,1.6534,1.6537,1.6514,1.6511,1.6507,1.6444,1.6503,1.6501,1.6499,1.6369,1.6367,1.6365,0,0,0,0,0,0,1.6554,1.6549,1.6509,1.653,1.6525,1.6533,1.6519,1.6522,1.6514,1.6516,1.6517,1.6524,1.6515,1.6511,1.6473,1.6444,1.65,1.6497,1.6371,1.6368,1.6366,1.6319,0,0,0,0,0,0,1.6555,1.6549,1.653,1.6529,1.6524,1.6477,1.6518,1.652,1.651,1.6514,1.6507,1.6507,1.6516,1.6476,1.647,1.6441,1.6495,1.6374,1.637,1.6367,1.6323,1.6314,1.6307,0,0,0,0,0,1.6557,1.6516,1.6529,1.6524,1.6501,1.6475,1.6472,1.6485,1.6507,1.6488,1.6489,1.6508,1.6449,1.6472,1.6466,1.6435,1.6376,1.6371,1.6367,1.6326,1.6316,1.6307,0,0,0,0,0,0,1.6511,1.6516,1.653,1.6488,1.6481,1.6481,1.6457,1.6473,1.6458,1.6462,1.6477,1.6475,1.6434,1.6431,1.6458,1.6384,1.6416,1.641,1.6387,1.6378,1.637,1.637,1.6493,0,0,0,0,0,1.6496,1.6477,1.6482,1.6443,1.644,1.6449,1.6438,1.6449,1.6441,1.6438,1.6437,1.6427,1.6406,1.6392,1.6373,1.6323,1.6321,1.6299,1.6292,1.6285,1.6279,1.6252,1.6242,1.635,1.635,1.635,0,0,1.6464,1.6465,1.6451,1.6434,1.643,1.6408,1.6446,1.6421,1.6404,1.6433,1.6398,1.6397,1.6387,1.6343,1.6323,1.6339,1.6249,1.6279,1.6274,1.6272,1.6246,1.6236,1.6227,1.6347,1.6347,1.6348,0,0,1.6395,1.6395,1.6363,1.6358,1.6353,1.636,1.6352,1.635,1.6351,1.6317,1.6339,1.6318,1.6282,1.6275,1.6266,1.6196,1.6212,1.6189,1.6148,1.6121,1.6112,1.6105,1.6078,1.6069,1.6183,1.6183,1.6183,0,1.6356,1.6325,1.6343,1.6317,1.6308,1.6338,1.6304,1.6299,1.6286,1.6279,1.6297,1.6254,1.6249,1.6203,1.6187,1.6179,1.6169,1.6189,1.6113,1.6105,1.6098,1.6073,1.6064,1.618,1.6181,1.6181,1.6181,0,1.6276,1.6255,1.623,1.6219,1.6208,1.6178,1.6191,1.6177,1.6189,1.6193,1.6157,1.6153,1.6134,1.6125,1.6135,1.608,1.609,1.6111,1.6142,1.6085,1.6062,1.6052,1.6176,1.6177,1.6178,1.6179,0,0,1.6175,1.6177,1.6167,1.6163,1.616,1.6143,1.6114,1.6098,1.6085,1.6076,1.6051,1.6021,1.6041,1.6031,1.6041,1.6018,1.5962,1.6041,1.6041,1.6025,1.5899,1.5883,1.5871,1.5973,1.5972,1.597,1.59,0,1.6106,1.6059,1.6075,1.6026,1.6006,1.6034,1.6009,1.6004,1.6007,1.5989,1.5993,1.5971,1.5999,1.5993,1.5972,1.5973,1.5936,1.5979,1.5948,1.5947,1.5948,1.586,1.5842,1.5775,1.5891,1.5889,1.5888,0,1.6018,1.6008,1.5958,1.5959,1.5951,1.5929,1.5915,1.5898,1.5892,1.5897,1.5887,1.5902,1.5873,1.5907,1.5865,1.5894,1.5883,1.5882,1.5879,1.5875,1.5913,1.5851,1.5754,1.5744,1.5874,1.5875,1.5876,0,1.5947,1.5921,1.5888,1.5884,1.5885,1.5868,1.5867,1.5863,1.5853,1.5841,1.5834,1.5817,1.5808,1.5794,1.5805,1.5829,1.5761,1.5796,1.5762,1.5761,1.5744,1.5745,1.5642,1.574,1.574,1.5741,1.5741,0,1.5867,1.5835,1.5857,1.5836,1.58,1.5819,1.5783,1.5785,1.5782,1.5761,1.5784,1.5763,1.5779,1.576,1.5767,1.5731,1.5727,1.5728,1.573,1.5725,1.5725,1.5716,1.5721,1.5738,1.5738,1.5739,1.5739,0,1.5781,1.5795,1.576,1.5765,1.5765,1.5739,1.5742,1.5722,1.5729,1.5702,1.5696,1.5705,1.5683,1.5693,1.567,1.5675,1.5628,1.5637,1.5631,1.5632,1.5597,1.56,1.5484,1.5469,1.5578,1.5577,1.5576,0,1.5728,1.5704,1.5707,1.5696,1.5695,1.5676,1.5666,1.5684,1.5672,1.5665,1.5645,1.5626,1.5612,1.5575,1.5578,1.556,1.5568,1.5529,1.5565,1.5561,1.5565,1.5566,1.5563,1.5521,1.5519,1.5518,1.5518,0,1.5632,1.564,1.5626,1.5615,1.5603,1.5594,1.5587,1.5576,1.5594,1.5579,1.5559,1.5548,1.5525,1.5505,1.5489,1.5487,1.5504,1.5507,1.5498,1.5491,1.5488,1.5488,1.5609,1.5508,1.5509,1.551,1.5511,1.5511,1.556,1.554,1.554,1.5523,1.5521,1.5514,1.5496,1.5501,1.5485,1.5469,1.5481,1.5456,1.5451,1.5432,1.5427,1.5407,1.5422,1.5409,1.5406,1.5402,1.5397,1.5493,1.5404,1.5405,1.5405,1.5405,1.5405,0,1.5464,1.5466,1.5451,1.5442,1.5428,1.545,1.5443,1.543,1.5409,1.5404,1.539,1.5366,1.5347,1.535,1.5332,1.5316,1.5323,1.531,1.531,1.5309,1.5385,1.5394,1.5304,1.5304,1.5304,1.5304,1.5304,1.5304,1.5412,1.538,1.5389,1.5355,1.5357,1.5335,1.5329,1.5323,1.5319,1.5292,1.5277,1.528,1.5278,1.5261,1.5244,1.5245,1.5237,1.522,1.5224,1.5294,1.5304,1.5313,1.5322,1.5219,1.5219,1.5151,1.515,1.5149]}]]